Showing default

EMISAT, 44078

Orbit data source: Space-Track

EMISAT, 44078 is a payload satellite owned by ISRO (IN) in SSO that was launched on Mon, 01 Apr 2019 UTC via a PSLV-QL launch vehicle from the Sirharikota (SRI). Payloads include a variety of satellites, spacecraft, and rockets equipped with specific instruments for various scientific and technological missions. These include communications satellites like Starlink; space stations such as the ISS; scientific satellites like the Hubble; Earth observation satellites from companies like Planet Labs, Umbra, and HawkEye 360; GPS; miniature CubeSats for education and research; and military/defense satellites.

Loading next visibility...
EMISAT details
Identifier
44078, 2019-018A
Orbit
SSO
Last TLE update6 hours ago
Origin
Flag of INISRO (IN / IND)
ManufacturerISRO
MissionOperational Defense Sigint
Bus & MotorSSB-2, AOCS
Mass436 kg wet, ~380 kg dry
Launch date (UTC)
2019-04-01 (6 years ago)
Launch vehicle
PSLV-QL
Launch site
Sirharikota (SRI)
Object type
Payload
Rocket body
Debris
Shape & HBRBox + 2 Pan, 6 m
Radar Cross Section4.485 m², Large (>1 m²)

Expand to show TLE details & history

TLE from 6 hours ago
0 EMISAT
1 44078U 19018A   24361.25247672  .00000703  00000-0  21898-3 0  9994
2 44078  98.3136  56.3480 0019342  44.6444 315.6300 14.43703220302443
Epoch: 2024-12-26T06:03Z
Definitive object data (Epoch: 2024-12-26T06:03:33.988Z)
Latitude-0.00007°
Longitude-129.77814°
Altitude739.409 km
Speed7.49 km/s
True Right ascension03h 45m 23s
True Declination0° 00' 00"
Sunlit
Object was in full shadow at TLE epoch
Visualization TLE readout
Latitude-72.29487°
Longitude23.38837°
Altitude784.862 km
Speed7.454 km/s
Apparent Right ascension22h 05m 58s
Apparent Declination-72° 44' 25"
Sunlit
Object is in daylight
Visualization observer readout
Local Sidereal Time11:34:51
Azimuth168.593° S
Elevation-55.43°
Doppler factor1
Orbital elements
Apogee altitude757.172 km
Perigee altitude729.623 km
Semi-major axis7,121.534 km
Eccentricity0.0019342
Inclination98.3136°
RAAN56.348°
Arg. of periapsis44.6444°
True anomaly315.47474°
Mean anomaly315.63°
Eccentric anomaly315.5524°
Mean motion3.61146 °/min
BSTAR0.00021898
Orbital period99.68 mins
Loading maneuver chart data...

EMISAT Visibility forecast

Observer location: undefined°, undefined

Span
Click to sort rows by Start time (UTC) header in descending order
Start Az.
Max El. time (UTC)
Max El. Az.
Max El.
End time (UTC)
End Az.
9 mins2024-12-26 16:36:23.288Z18.386° NNE2024-12-26 16:41:23.288Z129.063° SE42.655°2024-12-26 16:45:23.288Z184.639° SSW
8 mins2024-12-27 03:48:23.288Z161.332° S2024-12-27 03:52:23.288Z34.771° NE44.451°2024-12-27 03:56:23.288Z349.395° N
|